Shelbyville, IN

6:57 AM EST on December 07, 2019 (GMT -0500)
Shelbyville Municipal

Weather History for KGEZ - October, 2019

Change the Weather History Date:

Saturday, October 26, 2019

  Actual Average Record
Temperature  
Mean Temperature 58 °F 51 °F  
Max Temperature 66 °F 62 °F 79 °F (2000)
Min Temperature 49 °F 40 °F 30 °F (2013)
Degree Days  
Heating Degree Days 7 14  
Month to date heating degree days 202 277  
Since 1 July heating degree days 205 362  
Cooling Degree Days 0 0  
Month to date cooling degree days 36 11  
Year to date cooling degree days 1330 910  
Growing Degree Days 6 (Base 50)    
Moisture  
Dew Point 52 °F    
Average Humidity 84    
Maximum Humidity 93    
Minimum Humidity 74    
Precipitation  
Precipitation 1.91 in 0.10 in 1.91 in (2019)
Month to date precipitation 3.77 2.67  
Year to date precipitation 35.98 36.12  
Sea Level Pressure  
Sea Level Pressure 29.76 in    
Wind  
Wind Speed 16 mph (ESE)    
Max Wind Speed 32 mph    
Max Gust Speed 53 mph    
Visibility 6 miles    
Events Rain    
T = Trace of Precipitation, MM = Missing Value Source: NWS Daily Summary

Daily Weather History Graph

Daily Weather History Graph

Search for Another Location

Airport or City:

Astronomy

Oct. 26, 2019 Rise Set
Actual Time 8:04 AM EDT 6:49 PM EDT
Civil Twilight 7:37 AM EDT 7:16 PM EDT
Nautical Twilight 7:05 AM EDT 7:48 PM EDT
Astronomical Twilight 6:34 AM EDT 8:19 PM EDT
Moon 6:00 AM EDT (10/26) 6:23 PM EDT (10/26)
Length of Visible Light 11h 39m
Length of Day
10h 44m
Waning Crescent, 3% of the Moon is Illuminated
Oct 26
Waning Crescent
Oct 27
New
Nov 4
First Quarter
Nov 12
Full
Nov 19
Last Quarter

Hourly Weather History & Observations

Time (EDT) Temp. Dew Point Humidity Pressure Visibility Wind Dir Wind Speed Gust Speed Precip Events Conditions
12:53 AM 48.9 °F 42.1 °F 77% 30.17 in 10.0 mi NE 4.6 mph - N/A   Clear
1:53 AM 48.9 °F 42.1 °F 77% 30.15 in 10.0 mi ENE 5.8 mph - N/A   Clear
2:53 AM 48.9 °F 43.0 °F 80% 30.13 in 10.0 mi ENE 8.1 mph - N/A   Clear
3:53 AM 50.0 °F 43.0 °F 77% 30.12 in 10.0 mi ENE 8.1 mph - N/A   Scattered Clouds
4:53 AM 50.0 °F 43.0 °F 77% 30.09 in 10.0 mi ENE 8.1 mph - N/A   Overcast
5:53 AM 51.1 °F 44.1 °F 77% 30.06 in 9.0 mi ENE 9.2 mph - N/A   Overcast
6:53 AM 50.0 °F 45.0 °F 83% 30.04 in 6.0 mi ENE 8.1 mph - 0.02 in Rain Light Rain
7:53 AM 50.0 °F 46.0 °F 86% 30.00 in 5.0 mi ENE 9.2 mph - 0.04 in Rain Light Rain
8:53 AM 50.0 °F 46.9 °F 89% 29.98 in 4.0 mi ENE 12.7 mph 21.9 mph 0.04 in Rain Light Rain
9:53 AM 51.1 °F 48.0 °F 89% 29.97 in 2.0 mi ENE 13.8 mph - 0.15 in Rain Heavy Rain
10:14 AM 51.1 °F 48.0 °F 89% 29.95 in 3.0 mi East 13.8 mph 24.2 mph 0.07 in Rain Rain
10:28 AM 51.1 °F 48.0 °F 89% 29.94 in 2.5 mi East 17.3 mph 23.0 mph 0.12 in Rain Rain
10:53 AM 52.0 °F 48.0 °F 86% 29.93 in 2.5 mi East 13.8 mph 25.3 mph 0.21 in Rain Rain
11:07 AM 52.0 °F 48.9 °F 89% 29.92 in 1.8 mi East 12.7 mph 23.0 mph 0.09 in Rain Heavy Rain
11:40 AM 52.0 °F 48.9 °F 89% 29.90 in 2.0 mi East 13.8 mph 25.3 mph 0.36 in Rain Heavy Rain
11:53 AM 52.0 °F 48.9 °F 89% 29.89 in 1.8 mi East 13.8 mph 24.2 mph 0.47 in Rain Heavy Rain
12:01 PM 52.0 °F 50.0 °F 93% 29.87 in 2.5 mi East 15.0 mph 24.2 mph 0.04 in Rain Rain
12:06 PM 53.1 °F 50.0 °F 89% 29.87 in 3.0 mi East 13.8 mph 24.2 mph 0.05 in Rain Rain
12:29 PM 53.1 °F 50.0 °F 89% 29.85 in 3.0 mi East 13.8 mph 27.6 mph 0.11 in Rain Rain
12:53 PM 53.1 °F 50.0 °F 89% 29.85 in 2.0 mi East 15.0 mph 27.6 mph 0.22 in Rain Heavy Rain
1:13 PM 53.1 °F 50.0 °F 89% 29.82 in 4.0 mi East 12.7 mph 26.5 mph 0.07 in Rain Rain
1:42 PM 54.0 °F 51.1 °F 90% 29.79 in 2.5 mi East 16.1 mph 25.3 mph 0.17 in Rain Heavy Rain
1:53 PM 54.0 °F 51.1 °F 90% 29.78 in 2.5 mi East 13.8 mph 26.5 mph 0.22 in Rain Rain
2:02 PM 54.0 °F 52.0 °F 93% 29.77 in 4.0 mi East 13.8 mph 23.0 mph 0.02 in Rain Rain
2:10 PM 55.0 °F 52.0 °F 89% 29.77 in 4.0 mi East 15.0 mph 23.0 mph 0.04 in Rain Rain
2:48 PM 55.4 °F 53.6 °F 94% 29.73 in 2.5 mi East 12.7 mph 21.9 mph 0.13 in Rain Light Rain
2:53 PM 55.9 °F 53.1 °F 90% 29.73 in 6.0 mi East 15.0 mph 27.6 mph 0.13 in Rain Light Rain
3:00 PM 55.9 °F 53.1 °F 90% 29.71 in 4.0 mi East 15.0 mph 27.6 mph 0.02 in Rain Heavy Rain
3:13 PM 55.9 °F 53.1 °F 90% 29.70 in 4.0 mi East 15.0 mph 24.2 mph 0.05 in Rain Light Rain
3:50 PM 55.4 °F 53.6 °F 94% 29.67 in 2.0 mi East 16.1 mph 25.3 mph 0.20 in Rain Heavy Rain
3:53 PM 57.0 °F 54.0 °F 89% 29.67 in 2.0 mi East 16.1 mph 25.3 mph 0.21 in Rain Rain
4:14 PM 57.0 °F 54.0 °F 89% 29.66 in 2.5 mi East 16.1 mph 25.3 mph 0.07 in Rain Rain
4:17 PM 57.0 °F 54.0 °F 89% 29.65 in 3.0 mi East 15.0 mph 23.0 mph 0.08 in Rain Rain
4:53 PM 57.9 °F 55.0 °F 90% 29.62 in 4.0 mi ESE 17.3 mph 26.5 mph 0.11 in Rain Rain
5:06 PM 59.0 °F 55.9 °F 90% 29.61 in 5.0 mi ESE 16.1 mph 27.6 mph 0.01 in Rain Light Rain
5:40 PM 59.0 °F 55.9 °F 90% 29.58 in 6.0 mi ESE 17.3 mph 28.8 mph 0.02 in Rain Light Rain
5:53 PM 60.1 °F 55.9 °F 86% 29.57 in 10.0 mi ESE 18.4 mph 27.6 mph 0.02 in   Overcast
6:09 PM 60.1 °F 57.0 °F 90% 29.57 in 10.0 mi ESE 16.1 mph 28.8 mph N/A   Overcast
6:19 PM 61.0 °F 57.0 °F 87% 29.57 in 10.0 mi SE 16.1 mph 27.6 mph N/A   Overcast
6:35 PM 61.0 °F 57.0 °F 87% 29.56 in 2.0 mi SE 19.6 mph 29.9 mph 0.03 in Rain Rain
6:41 PM 61.0 °F 57.9 °F 90% 29.56 in 3.0 mi SE 20.7 mph 29.9 mph 0.03 in Rain Light Rain
6:53 PM 62.1 °F 57.9 °F 86% 29.55 in 6.0 mi ESE 18.4 mph 31.1 mph 0.05 in Rain Light Rain
7:13 PM 63.0 °F 57.9 °F 84% 29.55 in 10.0 mi SE 18.4 mph 29.9 mph 0.01 in Rain Light Rain
7:53 PM 64.0 °F 59.0 °F 84% 29.52 in 10.0 mi SSE 25.3 mph 35.7 mph 0.01 in Rain Light Rain
8:53 PM 64.0 °F 60.1 °F 87% 29.50 in 10.0 mi SE 20.7 mph 31.1 mph 0.00 in   Mostly Cloudy
9:19 PM 64.0 °F 60.1 °F 87% 29.50 in 10.0 mi SSE 19.6 mph 33.4 mph N/A   Mostly Cloudy
9:33 PM 64.0 °F 60.1 °F 87% 29.50 in 10.0 mi SSE 17.3 mph 27.6 mph N/A   Overcast
9:53 PM 64.9 °F 60.1 °F 84% 29.50 in 10.0 mi SSE 25.3 mph 35.7 mph N/A   Overcast
10:06 PM 64.9 °F 60.1 °F 84% 29.51 in 10.0 mi South 19.6 mph 34.5 mph 0.00 in   Overcast
10:53 PM 64.9 °F 57.9 °F 78% 29.52 in 10.0 mi SSW 29.9 mph 52.9 mph 0.00 in Rain Light Rain
11:51 PM 57.2 °F 51.8 °F 82% 29.55 in 10.0 mi SSW 25.3 mph 38.0 mph 0.01 in   Overcast
11:53 PM 57.9 °F 51.1 °F 78% 29.55 in 10.0 mi SSW 25.3 mph 40.3 mph 0.01 in   Overcast